AST,Max TemperatureF,Mean TemperatureF,Min TemperatureF,Max Dew PointF,MeanDew PointF,Min DewpointF,Max Humidity, Mean Humidity, Min Humidity, Max Sea Level PressureIn, Mean Sea Level PressureIn, Min Sea Level PressureIn, Max VisibilityMiles, Mean VisibilityMiles, Min VisibilityMiles, Max Wind SpeedMPH, Mean Wind SpeedMPH, Max Gust SpeedMPH,PrecipitationIn, CloudCover, Events, WindDirDegrees
2011-9-1,87,84,80,77,75,73,84,74,62,30.01,29.98,29.95,6,6,6,9,7,,0.00,2,Rain-Tornado,111
2011-9-2,87,84,80,77,76,75,84,76,66,30.01,29.96,29.92,6,6,6,9,6,,0.00,2,,112
2011-9-3,89,84,80,77,75,70,84,73,58,29.98,29.94,29.92,6,6,4,10,6,,0.00,2,Rain,75
2011-9-4,87,84,82,77,75,73,79,75,62,29.95,29.91,29.89,6,6,6,9,4,,0.00,1,,333
2011-9-5,87,84,82,77,76,75,79,73,66,29.95,29.91,29.86,6,6,5,12,6,,0.00,2,Rain,260
2011-9-6,87,84,82,77,75,72,84,72,62,30.01,29.95,29.92,6,6,6,10,6,,0.00,1,,122
2011-9-7,89,83,77,77,75,73,94,77,62,29.98,29.93,29.89,6,6,2,17,8,24,0.00,3,Rain-Thunderstorm,86
2011-9-8,87,82,78,79,77,75,94,81,66,29.98,29.94,29.89,6,6,2,15,9,,0.00,3,Rain-Thunderstorm,111
2011-9-9,87,84,82,77,75,72,84,72,58,29.98,29.92,29.86,6,6,6,22,14,,0.00,2,,78
2011-9-10,87,82,78,77,75,73,94,80,62,29.92,29.81,29.74,6,6,5,20,16,33,0.00,4,Rain,59
2011-9-11,84,81,78,79,77,75,94,87,79,29.98,29.86,29.71,6,5,1,29,13,40,0.00,4,Rain-Thunderstorm,191
2011-9-12,82,80,77,79,76,72,94,85,74,30.01,29.98,29.92,6,6,2,17,13,22,0.00,4,Rain-Thunderstorm,138
2011-9-13,87,81,75,77,76,73,94,80,70,29.98,29.94,29.92,6,6,4,15,9,,0.00,3,Rain-Thunderstorm,144
2011-9-14,86,83,80,79,77,75,89,80,74,30.01,29.97,29.92,6,6,6,15,10,,0.00,2,,130
2011-9-15,87,84,82,77,75,75,84,75,66,30.04,29.99,29.95,6,6,6,14,10,,0.00,2,,109
2011-9-16,87,82,78,75,73,70,79,72,58,30.01,29.97,29.92,6,6,6,13,10,,0.00,2,,84
2011-9-17,86,82,77,75,73,70,89,78,66,29.98,29.93,29.89,6,6,6,16,9,,0.00,3,Rain-Thunderstorm,108
2011-9-18,82,78,75,75,74,72,100,82,74,30.01,29.95,29.89,6,6,2,22,9,32,0.00,3,Rain-Thunderstorm,110
2011-9-19,86,82,78,75,74,73,84,75,66,29.98,29.92,29.89,6,6,6,10,8,,0.00,3,,100
2011-9-20,86,83,80,75,74,72,84,76,70,29.98,29.93,29.89,6,6,6,13,9,,0.00,3,Rain,97
2011-9-21,87,84,80,79,76,73,94,80,70,29.98,29.94,29.86,6,6,3,20,11,,0.00,3,Rain,93
2011-9-22,86,83,80,77,75,73,89,76,70,30.04,29.99,29.95,6,6,6,17,12,,0.00,3,Rain,104
2011-9-23,87,84,80,75,73,72,84,70,62,30.04,29.99,29.95,6,6,5,17,12,,0.00,2,Rain,82
2011-9-24,87,84,80,75,73,72,84,73,62,29.98,29.94,29.89,6,6,6,20,14,,0.00,2,,70
2011-9-25,89,83,77,77,76,72,89,81,66,29.95,29.89,29.86,6,6,6,12,8,,0.00,-452,Rain,71
2011-9-26,86,82,78,79,77,75,89,82,74,29.95,29.91,29.89,6,6,6,7,3,,0.00,2,Rain,13
2011-9-27,87,84,80,79,77,75,89,82,70,29.95,29.89,29.86,6,6,6,10,5,,0.00,3,Rain,21
2011-9-28,86,83,80,77,75,73,84,77,70,29.89,29.82,29.77,6,6,6,10,8,,0.00,2,,16
2011-9-29,86,83,80,77,75,73,84,77,70,29.86,29.80,29.74,6,6,6,15,9,,0.00,2,Rain,307
2011-9-30,87,84,80,77,76,73,84,76,70,29.92,29.87,29.80,6,6,6,10,5,,0.00,2,,231